Tracking 28792 objects as of 23-Apr-2024
HD Live streaming from Space Station
objects crossing your sky now

IUS DEB

Track IUS DEB now!
10-day predictions


NORAD ID: 43367
Int'l Code: 1999-040Q
Perigee: 797.1 km
Apogee: 9,526.9 km
Inclination: 28.1 °
Period: 205.4 minutes
Semi major axis: 11533 km
RCS: Unknown
Launch date: July 23, 1999
Source: United States (US)
Launch site: AIR FORCE EASTERN TEST RANGE (AFETR)

Note: This is SATELLITE DEBRIS
Your satellite tracking list
Your tracking list is empty




NASA's NSSDC Master Catalog

Two Line Element Set (TLE):
1 43367U 99040Q   24101.17313628 -.00000226  00000-0 -15710-2 0  9992
2 43367  28.1152  45.1212 3784677 172.6741 195.0611  7.00951608290571
Source of the keplerian elements: AFSPC